[[{"header":{"parameterUnit":"m.s-1","parameterCategory":1,"la1":30.2991,"la2":30.254,"lo1":-89.0895,"lo2":-89.0444,"dy":0.0017,"dx":0.0017,"nx":28,"ny":28,"refTime":"2024-08-03T21:00:00:Z","depth":0,"parameterNumber":2,"parameterNumberName":"U-component_of_WINDS"},"data":[0,0,0,0,0,0,0,0,0,0,0,0,0,0,0,0,0,0,0,0,0,0,0,0,0,0,0,0,0,0,0,0,0,0,0,0,0,0,0,0,0,0,0,0,0,0,0,0,0,0,0,0,0,0,0,0,0,0,-0.1157,-0.1157,0,-0.1096,-0.1096,-0.1095,-0.1104,-0.1105,-0.1106,-0.1107,-0.104,-0.1037,-0.1034,0,0,0,0,0,0,0,0,0,0,0,0,0,-0.1275,-0.1273,-0.1157,-0.1156,-0.1156,-0.1096,-0.1096,-0.1095,-0.1103,-0.1105,-0.1106,-0.1107,-0.1041,-0.1037,-0.1034,0,0,0,0,0,0,0,0,0,0,0,0,0,-0.122,-0.1272,-0.1157,-0.1153,-0.1152,-0.1097,-0.1095,-0.1094,-0.1103,-0.1105,-0.1106,-0.1108,-0.1042,-0.1038,-0.1034,-0.0977,0,0,-0.1021,-0.1019,0,0,0,0,0,0,0,0,-0.1223,-0.1216,-0.1154,-0.1153,-0.1152,-0.1109,-0.1113,-0.1055,-0.1103,-0.1122,-0.1107,-0.1109,-0.1061,-0.1056,-0.1041,-0.0974,-0.0971,-0.1021,-0.1018,-0.1016,-0.1015,0,0,0,0,0,0,0,-0.1227,-0.1218,-0.1133,-0.1154,-0.1152,-0.1152,-0.1146,-0.1102,-0.1083,-0.112,-0.1121,-0.1114,-0.1061,-0.1045,-0.1039,-0.097,-0.1021,-0.1017,-0.1014,-0.1013,-0.085,-0.0848,0,0,0,0,0,0,-0.1233,-0.1221,-0.1135,-0.1131,-0.1192,-0.1149,-0.1142,-0.1121,-0.1084,-0.108,-0.1112,-0.1114,-0.1051,-0.1044,-0.1037,-0.0965,-0.1016,-0.1012,-0.101,-0.0852,-0.0849,-0.0847,0,0,0,0,0,0,-0.1235,-0.1225,-0.1137,-0.1176,-0.1165,-0.1145,-0.1122,-0.1119,-0.1103,-0.1078,-0.1074,-0.1099,-0.1052,-0.1043,-0.0991,-0.0963,-0.1011,-0.1007,-0.0854,-0.0851,-0.0848,-0.0824,0,0,0,0,0,0,-0.1239,-0.1226,-0.1206,-0.1176,-0.1163,-0.1095,-0.112,-0.1117,-0.1096,-0.1098,-0.1065,-0.1061,-0.1052,-0.0997,-0.0987,-0.0958,-0.1004,-0.0856,-0.0852,-0.0849,-0.0827,-0.082,-0.0815,0,0,0,0,0,-0.1243,-0.1201,-0.1205,-0.1194,-0.1138,-0.1093,-0.1086,-0.1078,-0.1094,-0.1072,-0.1056,-0.1062,-0.0968,-0.0992,-0.0981,-0.095,-0.0858,-0.0854,-0.0849,-0.0829,-0.0822,-0.0815,0,0,0,0,0,0,-0.1226,-0.1197,-0.1201,-0.1148,-0.1123,-0.1095,-0.1067,-0.107,-0.1039,-0.1042,-0.1033,-0.1025,-0.0972,-0.0956,-0.0983,-0.0892,-0.0915,-0.0908,-0.0904,-0.0896,-0.089,-0.0894,-0.1,0,0,0,0,0,-0.1217,-0.1185,-0.116,-0.1116,-0.1103,-0.1087,-0.1068,-0.1064,-0.1037,-0.1026,-0.1006,-0.0978,-0.0942,-0.0918,-0.0884,-0.0825,-0.0816,-0.0798,-0.0792,-0.0787,-0.0781,-0.0745,-0.0736,-0.0834,-0.0834,-0.0834,0,0,-0.1196,-0.1176,-0.1156,-0.1112,-0.1092,-0.1057,-0.1078,-0.1041,-0.1013,-0.102,-0.097,-0.0954,-0.0922,-0.0866,-0.084,-0.0851,-0.0752,-0.0782,-0.0779,-0.0774,-0.074,-0.073,-0.0722,-0.0831,-0.0831,-0.0832,0,0,-0.114,-0.1124,-0.1084,-0.1063,-0.1033,-0.1023,-0.1013,-0.0984,-0.0973,-0.0924,-0.0927,-0.0893,-0.0833,-0.0809,-0.0789,-0.0722,-0.0725,-0.0711,-0.0679,-0.0644,-0.0636,-0.0629,-0.0602,-0.0593,-0.0705,-0.0705,-0.0705,0,-0.1118,-0.1067,-0.1062,-0.1023,-0.1002,-0.1008,-0.0965,-0.0946,-0.0905,-0.089,-0.0903,-0.0825,-0.0804,-0.0741,-0.0724,-0.0709,-0.0695,-0.0714,-0.0638,-0.0631,-0.0624,-0.0598,-0.0589,-0.0704,-0.0704,-0.0704,-0.0704,0,-0.1039,-0.1003,-0.0975,-0.0936,-0.0912,-0.0872,-0.0859,-0.0835,-0.0833,-0.082,-0.0767,-0.0742,-0.0702,-0.0687,-0.0685,-0.0622,-0.0629,-0.0641,-0.0663,-0.0613,-0.0588,-0.0579,-0.0701,-0.0702,-0.0702,-0.0703,0,0,-0.0971,-0.093,-0.0919,-0.09,-0.0867,-0.0838,-0.0797,-0.0759,-0.0736,-0.0708,-0.0671,-0.0619,-0.0629,-0.0606,-0.0601,-0.0571,-0.0515,-0.0585,-0.0584,-0.057,-0.044,-0.043,-0.0419,-0.0518,-0.0516,-0.0514,-0.0442,0,-0.0909,-0.0838,-0.0832,-0.0767,-0.0731,-0.0736,-0.0699,-0.0673,-0.066,-0.0627,-0.0611,-0.0573,-0.059,-0.0576,-0.0547,-0.0528,-0.0488,-0.0534,-0.048,-0.0478,-0.0485,-0.0407,-0.0396,-0.0329,-0.0433,-0.0431,-0.043,0,-0.0828,-0.0798,-0.0729,-0.0699,-0.0684,-0.0651,-0.0614,-0.0583,-0.0553,-0.0545,-0.0519,-0.0518,-0.0472,-0.0499,-0.0434,-0.0465,-0.0443,-0.043,-0.0427,-0.042,-0.0449,-0.0394,-0.0308,-0.0296,-0.0415,-0.0416,-0.0417,0,-0.078,-0.0723,-0.0674,-0.0658,-0.0622,-0.0599,-0.0582,-0.0554,-0.0531,-0.0498,-0.0481,-0.0444,-0.0422,-0.0391,-0.0378,-0.0399,-0.0313,-0.0339,-0.0302,-0.0302,-0.0282,-0.0283,-0.0188,-0.0273,-0.0273,-0.0273,-0.0273,0,-0.0711,-0.0668,-0.0652,-0.0621,-0.0572,-0.0565,-0.0516,-0.05,-0.0475,-0.0439,-0.0441,-0.0407,-0.0394,-0.0357,-0.0347,-0.0293,-0.0284,-0.0274,-0.0271,-0.0272,-0.0272,-0.0255,-0.0258,-0.027,-0.0271,-0.0271,-0.0272,0,-0.0649,-0.0637,-0.0583,-0.0553,-0.0545,-0.051,-0.0483,-0.0452,-0.044,-0.0394,-0.0383,-0.0362,-0.0319,-0.0304,-0.0251,-0.0244,-0.018,-0.0183,-0.019,-0.0189,-0.0152,-0.0154,-0.0039,-0.0022,-0.0122,-0.0121,-0.012,0,-0.0603,-0.0571,-0.0538,-0.0515,-0.0497,-0.0461,-0.0436,-0.0427,-0.0402,-0.0364,-0.0336,-0.0294,-0.0259,-0.0189,-0.0167,-0.0126,-0.0126,-0.0089,-0.012,-0.012,-0.0121,-0.0122,-0.0117,-0.0082,-0.0081,-0.008,-0.0079,0,-0.0523,-0.0519,-0.0485,-0.0448,-0.042,-0.039,-0.0362,-0.0342,-0.0328,-0.0299,-0.0255,-0.0228,-0.0174,-0.013,-0.0088,-0.0069,-0.007,-0.007,-0.0059,-0.0058,-0.0062,-0.0056,-0.0171,-0.0072,-0.0073,-0.0073,-0.0074,-0.0074,-0.0466,-0.0436,-0.0407,-0.0369,-0.0346,-0.0319,-0.0288,-0.0271,-0.0235,-0.0191,-0.0188,-0.014,-0.0108,-0.0051,-0.003,0.001,0.0,0.0016,0.002,0.0025,0.0029,-0.0071,0.0017,0.0017,0.0017,0.0017,0.0017,0,-0.0383,-0.0365,-0.033,-0.029,-0.0258,-0.0266,-0.0233,-0.0206,-0.0164,-0.0135,-0.0101,-0.0049,-0.0006,0.0019,0.0062,0.009,0.009,0.0101,0.0101,0.0106,0.0034,0.0021,0.01,0.01,0.01,0.01,0.01,0.01,-0.0336,-0.0284,-0.0276,-0.0212,-0.0194,-0.0148,-0.0128,-0.0102,-0.0079,-0.0021,0.0014,0.0029,0.0058,0.0104,0.0144,0.015,0.0168,0.018,0.0187,0.0119,0.0111,0.0103,0.0091,0.0183,0.0183,0.0256,0.0257,0.0257]},{"header":{"parameterUnit":"m.s-1","parameterCategory":1,"la1":30.2991,"la2":30.254,"lo1":-89.0895,"lo2":-89.0444,"dy":0.0017,"dx":0.0017,"nx":28,"ny":28,"refTime":"2024-08-03T21:00:00:Z","depth":0,"parameterNumber":3,"parameterNumberName":"V-component_of_WINDS"},"data":[0,0,0,0,0,0,0,0,0,0,0,0,0,0,0,0,0,0,0,0,0,0,0,0,0,0,0,0,0,0,0,0,0,0,0,0,0,0,0,0,0,0,0,0,0,0,0,0,0,0,0,0,0,0,0,0,0,0,-2.6093,-2.6093,0,-2.6123,-2.6123,-2.6124,-2.6238,-2.624,-2.6243,-2.6245,-2.6272,-2.627,-2.6269,0,0,0,0,0,0,0,0,0,0,0,0,0,-2.6131,-2.613,-2.6093,-2.6093,-2.6094,-2.6123,-2.6123,-2.6124,-2.6237,-2.624,-2.6244,-2.6247,-2.6272,-2.627,-2.6268,0,0,0,0,0,0,0,0,0,0,0,0,0,-2.6133,-2.613,-2.6093,-2.6154,-2.616,-2.6123,-2.6123,-2.6124,-2.6237,-2.624,-2.6244,-2.6248,-2.6273,-2.6271,-2.6268,-2.6173,0,0,-2.626,-2.6259,0,0,0,0,0,0,0,0,-2.6133,-2.6132,-2.6144,-2.615,-2.6156,-2.6181,-2.6147,-2.614,-2.6236,-2.6207,-2.6245,-2.625,-2.6238,-2.6239,-2.6236,-2.6175,-2.6176,-2.626,-2.6258,-2.6257,-2.6256,0,0,0,0,0,0,0,-2.6133,-2.6131,-2.6105,-2.6144,-2.6151,-2.6179,-2.6184,-2.6146,-2.62,-2.621,-2.6218,-2.6221,-2.6242,-2.6238,-2.6237,-2.6176,-2.626,-2.6258,-2.6256,-2.6255,-2.6042,-2.6038,0,0,0,0,0,0,-2.6124,-2.613,-2.6104,-2.6106,-2.6154,-2.6175,-2.618,-2.6169,-2.6201,-2.621,-2.6217,-2.6226,-2.624,-2.624,-2.6238,-2.6131,-2.6257,-2.6255,-2.6253,-2.6046,-2.6041,-2.6037,0,0,0,0,0,0,-2.6125,-2.6121,-2.6102,-2.612,-2.612,-2.617,-2.6156,-2.6167,-2.6163,-2.6206,-2.6216,-2.6203,-2.6243,-2.6242,-2.619,-2.6134,-2.6254,-2.6251,-2.6051,-2.6045,-2.6039,-2.5915,0,0,0,0,0,0,-2.6125,-2.612,-2.6085,-2.6119,-2.6119,-2.6053,-2.6153,-2.6165,-2.6159,-2.617,-2.6196,-2.6204,-2.6246,-2.6193,-2.6187,-2.6132,-2.6249,-2.6056,-2.6048,-2.6041,-2.5924,-2.5905,-2.5889,0,0,0,0,0,-2.6126,-2.6047,-2.6083,-2.6079,-2.6076,-2.605,-2.605,-2.6102,-2.6154,-2.6119,-2.6147,-2.6203,-2.6141,-2.6187,-2.6181,-2.6124,-2.606,-2.6051,-2.6042,-2.5932,-2.5909,-2.5889,0,0,0,0,0,0,-2.6003,-2.6052,-2.6092,-2.6022,-2.6031,-2.6069,-2.6026,-2.6075,-2.6068,-2.6079,-2.6143,-2.6148,-2.6086,-2.6101,-2.615,-2.6036,-2.611,-2.6099,-2.6028,-2.6007,-2.599,-2.5987,-2.6247,0,0,0,0,0,-2.5968,-2.5944,-2.5988,-2.5921,-2.5924,-2.5974,-2.5965,-2.6005,-2.6016,-2.602,-2.6044,-2.6052,-2.6035,-2.6022,-2.6009,-2.5928,-2.5935,-2.5886,-2.5868,-2.5854,-2.5843,-2.5803,-2.5782,-2.6007,-2.6007,-2.6007,0,0,-2.5894,-2.5918,-2.5899,-2.5897,-2.5909,-2.5882,-2.5976,-2.5943,-2.5924,-2.6014,-2.5967,-2.5985,-2.5999,-2.5932,-2.5904,-2.5942,-2.5784,-2.5842,-2.583,-2.5827,-2.5792,-2.577,-2.5751,-2.6,-2.6002,-2.6003,0,0,-2.5746,-2.5762,-2.571,-2.5721,-2.5738,-2.5773,-2.576,-2.5792,-2.5808,-2.5762,-2.583,-2.5808,-2.5777,-2.5784,-2.5784,-2.5643,-2.5694,-2.5637,-2.5544,-2.5505,-2.5487,-2.5471,-2.5422,-2.5403,-2.5627,-2.5626,-2.5626,0,-2.5652,-2.5615,-2.5676,-2.5639,-2.5637,-2.5721,-2.5668,-2.5675,-2.5687,-2.5683,-2.5727,-2.5691,-2.5706,-2.5643,-2.5609,-2.5606,-2.5594,-2.5633,-2.5485,-2.547,-2.5456,-2.541,-2.5391,-2.5619,-2.562,-2.5621,-2.5621,0,-2.5499,-2.5472,-2.5428,-2.544,-2.5433,-2.5388,-2.5442,-2.5427,-2.5469,-2.5498,-2.5452,-2.5473,-2.5466,-2.5455,-2.5494,-2.5398,-2.5421,-2.5474,-2.5549,-2.5427,-2.5384,-2.5367,-2.5609,-2.5612,-2.5614,-2.5615,0,0,-2.527,-2.532,-2.5302,-2.531,-2.5337,-2.5318,-2.5278,-2.5273,-2.526,-2.5266,-2.5234,-2.5208,-2.5258,-2.5257,-2.5298,-2.5263,-2.5152,-2.5321,-2.5322,-2.5288,-2.5049,-2.5009,-2.4987,-2.5187,-2.5184,-2.5182,-2.5048,0,-2.513,-2.5065,-2.512,-2.5045,-2.5022,-2.5103,-2.5069,-2.5082,-2.511,-2.5094,-2.5125,-2.5105,-2.5172,-2.5173,-2.5142,-2.5172,-2.5105,-2.5182,-2.5157,-2.5156,-2.515,-2.4965,-2.4921,-2.4794,-2.5032,-2.5029,-2.5027,0,-2.4956,-2.4957,-2.488,-2.4916,-2.4909,-2.4876,-2.4879,-2.4863,-2.488,-2.4903,-2.4904,-2.4956,-2.492,-2.4995,-2.4946,-2.4998,-2.4992,-2.5005,-2.5002,-2.5,-2.5083,-2.4957,-2.4754,-2.4735,-2.5001,-2.5003,-2.5005,0,-2.4797,-2.478,-2.4732,-2.4736,-2.4776,-2.4752,-2.4768,-2.4789,-2.4784,-2.4786,-2.4783,-2.478,-2.4777,-2.4774,-2.4823,-2.4874,-2.4768,-2.4848,-2.4786,-2.4784,-2.4758,-2.4758,-2.455,-2.4755,-2.4755,-2.4756,-2.4756,0,-2.4634,-2.4583,-2.4662,-2.4632,-2.4579,-2.4644,-2.4589,-2.4613,-2.4632,-2.4608,-2.4678,-2.4655,-2.4722,-2.4706,-2.4745,-2.4699,-2.4697,-2.4714,-2.4725,-2.4707,-2.4705,-2.4703,-2.4712,-2.4751,-2.4752,-2.4753,-2.4754,0,-2.4446,-2.4497,-2.445,-2.4494,-2.4504,-2.4463,-2.45,-2.4474,-2.4509,-2.4478,-2.4475,-2.4527,-2.4512,-2.4562,-2.4554,-2.458,-2.4513,-2.4539,-2.4507,-2.4515,-2.445,-2.4455,-2.4232,-2.4206,-2.4428,-2.4426,-2.4424,0,-2.4337,-2.4301,-2.4342,-2.4333,-2.4345,-2.4328,-2.4325,-2.4388,-2.4381,-2.44,-2.4372,-2.4363,-2.4359,-2.4331,-2.4368,-2.4363,-2.4389,-2.4311,-2.4388,-2.4372,-2.4387,-2.4389,-2.4386,-2.4294,-2.4291,-2.4289,-2.4287,0,-2.414,-2.4168,-2.416,-2.4162,-2.4157,-2.416,-2.4169,-2.4157,-2.4225,-2.4214,-2.42,-2.4198,-2.4192,-2.4182,-2.4185,-2.4201,-2.4255,-2.4264,-2.4249,-2.423,-2.4213,-2.4221,-2.4463,-2.4268,-2.427,-2.4271,-2.4272,-2.4273,-2.3988,-2.3961,-2.3987,-2.3977,-2.3991,-2.3998,-2.3977,-2.401,-2.4001,-2.4002,-2.404,-2.4019,-2.404,-2.4051,-2.4062,-2.4046,-2.4082,-2.4061,-2.4055,-2.4049,-2.4038,-2.4217,-2.4047,-2.4048,-2.4049,-2.4049,-2.405,0,-2.3794,-2.3816,-2.3807,-2.3818,-2.3811,-2.3866,-2.3879,-2.3869,-2.385,-2.3866,-2.3862,-2.3848,-2.384,-2.3878,-2.3875,-2.3855,-2.388,-2.3852,-2.3854,-2.3857,-2.4006,-2.4019,-2.3832,-2.3832,-2.3833,-2.3833,-2.3833,-2.3833,-2.3692,-2.3649,-2.3681,-2.3646,-2.3668,-2.365,-2.3653,-2.366,-2.3674,-2.3655,-2.365,-2.3676,-2.3701,-2.3701,-2.3697,-2.3708,-2.3704,-2.3667,-2.3687,-2.3825,-2.3846,-2.3866,-2.3878,-2.3666,-2.3666,-2.3539,-2.3538,-2.3537]}]]